(52) Europa
ephemeris date magn radius delta ra dec elong phase
Today26 Jun 202612.02.750 AU3.759 AU06h40m+20°36'6.0°2.2°
Opposition24 Feb 202710.52.829 AU1.842 AU10h39m+14°11'174.6°1.9°
(52) Europa - 2026-06-26
astro.vanbuitenen.nl


 
-1 year
-1 month
-1 day
Now
+1 day
+1 month
+1 year

The interactive orbit chart above shows the body's path through the solar system and its position at the given date. Green and blue lines are shown perpendicular to the ecliptic plane: Green if the path is above the ecliptic plane, blue if it is below. (Left-click and drag to rotate the view; Right-click and drag to move the view; Use scroll wheel to zoom in our out.)

The orbital elements of Europa are:

            e (Eccentricity)                : 0.1124827
            a (Semimajor axis)              : 3.0941359
            i (Inclination)                 : 7.48150
            Ω (Longitude of ascending node) : 128.57341
            ω (Argument of perihelion)      : 342.80398
            M (Mean anomaly)                : 348.92279
            Epoch                           : 2026 Jun 09

            L (Longitude of perihelion)     : 111.51525
            B (Latitude of perihelion)      : -2.20611
            P (Orbital period in years)     : 5.44            
        

The light curve chart below shows the estimated development of the minor planet's magnitude.


The all-sky chart below shows the path of the minor planet over the same period as the light curve. The current position is marked yellow.





The following chart shows the path of the minor planet in the next few days. The field of view is optimized for (~10x50) binoculars and finderscopes.




Ephemerides:
Date       Time       RA (2000)    DEC (2000)    delta   radius  elong  phase   PA    magn
2026-06-26 00:00 UT   06 40 32.0   +20 36 10     3.759    2.750    6.0    2.2   119   12.0 
2026-06-26 23:33 UT   06 42 18.2   +20 35 34     3.760    2.750    5.5    2.0   121   12.0 
2026-06-27 00:00 UT   06 42 20.3   +20 35 33     3.760    2.750    5.5    2.0   121   12.0 
2026-06-28 00:00 UT   06 44 08.6   +20 34 52     3.761    2.750    5.0    1.8   124   11.9 
2026-06-29 00:00 UT   06 45 56.9   +20 34 06     3.762    2.750    4.5    1.7   127   11.9 
2026-06-30 00:00 UT   06 47 45.2   +20 33 15     3.763    2.750    4.1    1.5   131   11.9 
2026-07-01 00:00 UT   06 49 33.5   +20 32 19     3.763    2.749    3.7    1.4   136   11.9 
2026-07-02 00:00 UT   06 51 21.8   +20 31 18     3.764    2.749    3.3    1.2   142   11.9 
2026-07-03 00:00 UT   06 53 10.1   +20 30 13     3.764    2.749    2.9    1.1   149   11.9 
2026-07-04 00:00 UT   06 54 58.4   +20 29 02     3.764    2.749    2.6    1.0   159   11.9 
2026-07-05 00:00 UT   06 56 46.7   +20 27 47     3.764    2.749    2.4    0.9   170   11.9 
2026-07-06 00:00 UT   06 58 35.0   +20 26 27     3.764    2.749    2.3    0.9   183   11.9 
2026-07-07 00:00 UT   07 00 23.2   +20 25 02     3.764    2.749    2.3    0.9   196   11.9 
2026-07-08 00:00 UT   07 02 11.4   +20 23 32     3.764    2.748    2.5    0.9   209   11.9 
2026-07-09 00:00 UT   07 03 59.6   +20 21 58     3.763    2.748    2.7    1.0   220   11.9 
2026-07-10 00:00 UT   07 05 47.7   +20 20 18     3.763    2.748    3.0    1.1   229   11.9 
2026-07-11 00:00 UT   07 07 35.8   +20 18 35     3.762    2.748    3.4    1.2   236   11.9 
2026-07-12 00:00 UT   07 09 23.9   +20 16 46     3.761    2.748    3.8    1.4   241   11.9 
2026-07-13 00:00 UT   07 11 11.9   +20 14 53     3.761    2.748    4.2    1.6   246   11.9 
2026-07-14 00:00 UT   07 12 59.9   +20 12 55     3.760    2.748    4.7    1.7   250   11.9 
2026-07-15 00:00 UT   07 14 47.7   +20 10 52     3.758    2.747    5.1    1.9   253   11.9 
2026-07-16 00:00 UT   07 16 35.5   +20 08 45     3.757    2.747    5.6    2.1   256   12.0 


    Terminology:
            
    delta:  distance between minor planet and earth in AU
    radius: distance between minor planet and sun in AU
    magn:   magnitude (brightness) estimate    
    ra:     right ascension in hours (24h = 360deg)
    dec:    declination in degrees
    elong:  elongation in degrees (angle sun-earth-minor planet)    
    phase:  phase angle in degrees (angle sun-minor planet-earth)        
    AU:     Astronomical Unit (mean distance between earth and sun: 149597870.7 km
    

Orbital elements provided by the MPC (Minor Planet Center).
Calculations by a modified version of AAPlus, a C# implementation of the AA+ project by PJ Naughter from the algorithms presented in the book "Astronomical Algorithms" by Jean Meeus.
NGC2000 dso catalog and star labels from VizieR as provided by the Strasbourg astronomical Data Center.
Tycho2 catalog from the ESO archive.